[TLELIST] Archives

 

[list_settings.list_name] Current TLEs

September 4th 2021 PST

HST 1 20580U 90037B 21246.80101838 .00000660 00000-0 28921-4 0 9996 2 20580 28.4696 266.6495 0002637 181.2306 341.9686 15.09722107522841 ISS (ZARYA) 1 25544U 98067A 21247.52848604 .00002176 00000-0 48287-4 0 9992 2 25544 51.6451 310.3914 0003148 353.1564 85.7679 15.48592506300895 CXO 1 25867U 99040B 21247.44811910 .00000836 00000-0 00000-0 0 9991 2 25867 53.2088 251.9262 8443523 227.0363 0.6064 0.37807631 10748 ____________________________________________________________________ These 2-Line ...Continue Reading

[list_settings.list_name] Current TLEs

September 3rd 2021 PST

HST 1 20580U 90037B 21245.80940900 .00000706 00000-0 31699-4 0 9993 2 20580 28.4697 273.2115 0002675 170.6348 352.4842 15.09721297522698 ISS (ZARYA) 1 25544U 98067A 21246.36984941 .00003100 00000-0 65296-4 0 9995 2 25544 51.6448 316.1187 0002983 351.4473 103.9145 15.48589773300717 CXO 1 25867U 99040B 21247.44811910 .00000836 00000-0 00000-0 0 9991 2 25867 53.2088 251.9262 8443523 227.0363 0.6064 0.37807631 10748 ____________________________________________________________________ These 2-Line ...Continue Reading

[list_settings.list_name] Current TLEs

September 2nd 2021 PST

HST 1 20580U 90037B 21244.47668848 .00000792 00000-0 36924-4 0 9994 2 20580 28.4698 282.0309 0002739 156.6350 308.7943 15.09720182522496 ISS (ZARYA) 1 25544U 98067A 21245.40269671 .00004374 00000-0 88742-4 0 9990 2 25544 51.6443 320.8991 0003123 344.6606 115.3739 15.48588770300561 CXO 1 25867U 99040B 21247.44752561 .00000836 00000-0 00000-0 0 9997 2 25867 53.2088 251.9263 8443530 227.0363 0.5253 0.37807300 10738 ____________________________________________________________________ These 2-Line ...Continue Reading

[list_settings.list_name] Current TLEs

September 1st 2021 PST

HST 1 20580U 90037B 21243.55412194 .00000860 00000-0 40986-4 0 9992 2 20580 28.4699 288.1360 0002785 147.1299 334.2203 15.09719549522352 ISS (ZARYA) 1 25544U 98067A 21244.43608225 .00004548 00000-0 91971-4 0 9995 2 25544 51.6441 325.6774 0003022 341.1133 126.5889 15.48580369300416 CXO 1 25867U 99040B 21244.80329788 .00000699 00000-0 00000-0 0 9992 2 25867 53.2663 252.0422 8439819 226.9951 0.6188 0.37805295 10731 ____________________________________________________________________ These 2-Line ...Continue Reading

[list_settings.list_name] Current TLEs

August 31st 2021 PST

HST NO TLE 9997 NO TLE ISS (ZARYA) 1 25544U 98067A 21243.53070377 .00004799 00000-0 96598-4 0 9994 2 25544 51.6438 330.1537 0003021 336.9881 120.0148 15.48572051300271 CXO 1 25867U 99040B 21244.80329788 .00000699 00000-0 00000-0 0 9992 2 25867 53.2663 252.0422 8439819 226.9951 0.6188 0.37805295 10731 ____________________________________________________________________ These 2-Line Elements (TLEs) are direct from DoD/ USSTRATCOM/ US Space Command with permission. Updates are provided automatically d ...Continue Reading

[list_settings.list_name] Current TLEs

August 30th 2021 PST

HST 1 20580U 90037B 21241.90943567 .00001073 00000-0 53883-4 0 9999 2 20580 28.4703 299.0194 0002853 130.3152 34.4726 15.09719038522376 ISS (ZARYA) 1 25544U 98067A 21242.37462556 .00004633 00000-0 93599-4 0 9994 2 25544 51.6443 335.8683 0002943 333.1052 154.6983 15.48559540300090 CXO 1 25867U 99040B 21244.80230968 .00000699 00000-0 00000-0 0 9993 2 25867 53.2663 252.0423 8439821 226.9952 0.4844 0.37805133 10723 ____________________________________________________________________ These 2-Line ...Continue Reading

[list_settings.list_name] Current TLEs

August 29th 2021 PST

HST 1 20580U 90037B 21240.64733677 .00001142 00000-0 58099-4 0 9999 2 20580 28.4704 307.3710 0002899 117.6718 14.0321 15.09717785521911 ISS (ZARYA) 1 25544U 98067A 21241.46646257 .00003973 00000-0 81474-4 0 9990 2 25544 51.6449 340.3575 0002917 329.7762 131.8568 15.48547865299952 CXO 1 25867U 99040B 21242.15873589 .00000558 00000-0 00000-0 0 9995 2 25867 53.3253 252.1550 8435777 226.9567 0.6465 0.37804720 10721 ____________________________________________________________________ These 2-Line ...Continue Reading

[list_settings.list_name] Current TLEs

August 28th 2021 PST

HST 1 20580U 90037B 21239.65509544 .00000670 00000-0 29527-4 0 9991 2 20580 28.4705 313.9367 0002911 107.8617 20.3420 15.09714089521764 ISS (ZARYA) 1 25544U 98067A 21240.49596037 .00002494 00000-0 54235-4 0 9994 2 25544 51.6457 345.1551 0002718 325.3619 122.3730 15.48533207299805 CXO 1 25867U 99040B 21242.15873589 .00000558 00000-0 00000-0 0 9995 2 25867 53.3253 252.1550 8435777 226.9567 0.6465 0.37804720 10721 ____________________________________________________________________ These 2-Line ...Continue Reading

[list_settings.list_name] Current TLEs

August 27th 2021 PST

HST 1 20580U 90037B 21238.52298655 .00000650 00000-0 28343-4 0 9997 2 20580 28.4707 321.4280 0002920 96.7069 346.3229 15.09713036521591 ISS (ZARYA) 1 25544U 98067A 21238.82120988 .00001705 00000-0 39706-4 0 9996 2 25544 51.6458 353.4319 0002742 318.3374 146.9992 15.48520491299541 CXO 1 25867U 99040B 21242.15849359 .00000558 00000-0 00000+0 0 9992 2 25867 53.3255 252.1550 8435760 226.9566 0.6135 0.37805473 21850 ____________________________________________________________________ These 2-Line ...Continue Reading

[list_settings.list_name] Current TLEs

August 26th 2021 PST

HST 1 20580U 90037B 21237.94286674 .00000619 00000-0 26420-4 0 9999 2 20580 28.4708 325.2667 0002922 90.8138 73.0347 15.09712428521507 ISS (ZARYA) 1 25544U 98067A 21238.36343318 .00001712 00000-0 39845-4 0 9991 2 25544 51.6457 355.6945 0002728 315.8021 115.8980 15.48518607299474 CXO 1 25867U 99040B 21239.51390295 .00000463 00000-0 00000-0 0 9994 2 25867 53.3848 252.2626 8430381 226.9263 0.6259 0.37804393 10700 ____________________________________________________________________ These 2-Line ...Continue Reading
  • This mailing list is a public mailing list - anyone may join or leave, at any time.
  • This mailing list is announce-only.

International Space Station (ISS) / Hubble Space Telescope (HST) / Chandra X-Ray Observatory Orbital Data via EMAIL

Privacy Policy:

Private list